#timestamp,LO_Frequency,Hit,StdDev 
1541833215.7,286046999.6,N
1541833235.5,286046999.1,N
1541833255.4,286046997.4,N
1541833275.2,286046997.6,N
1541833295.0,286046998.0,N
1541833295.9,286046998.0,N
1541833315.8,286046993.4,Y
1541833335.6,286046996.5,P
1541833355.5,286046998.9,N
1541833375.3,286046998.0,N
1541833395.1,286046997.0,Y
1541833415.9,286046998.5,P
1541833435.7,286046998.1,P
1541833455.5,286046998.4,P
1541833475.4,286047000.7,N
1541833495.2,286046998.5,N
1541833515.1,286046999.2,N
1541833516.0,286046999.2,N
1541833535.8,286046999.6,N
1541833555.6,286046999.1,N
1541833575.5,286046998.9,N
1541833595.3,286046996.9,Y
1541833615.1,286046996.5,P
1541833635.9,286046997.1,N
1541833655.7,286046997.1,N
1541833675.6,286046997.3,Y
1541833695.4,286047000.6,P
1541833715.2,286047000.7,N
1541833735.1,286046999.3,N
1541833736.0,286046999.3,N
1541833755.8,286046996.5,N
1541833775.6,286046998.6,N
1541833795.5,286046998.5,N
1541833815.3,286046998.4,N
1541833835.2,286047001.2,N
1541833855.9,286047002.8,N
1541833875.7,286047002.0,N
1541833895.6,286047000.2,N
1541833915.4,286046999.8,N
1541833935.2,286047000.3,N
1541833955.1,286047011.9,Y
1541833956.0,286047001.0,P
1541833975.8,286047000.9,N
1541833995.7,286047002.6,P
1541834015.5,286047002.1,N
1541834035.3,286046999.9,N
1541834055.2,286047000.3,N
1541834075.0,286047000.5,N
1541834075.9,286047000.5,N
1541834095.8,286046998.6,N
1541834115.6,286046998.2,N
1541834135.4,286046998.2,N
1541834155.3,286047001.1,N
1541834175.1,286047001.2,N
1541834176.0,286047001.2,N
1541834195.8,286047000.4,N
1541834215.7,286047001.0,N
1541834235.5,286047000.0,N
1541834255.3,286046998.7,N
1541834275.2,286046998.3,N
1541834295.0,286047000.9,N
1541834295.9,286047000.9,N
1541834315.8,286046998.1,N
1541834335.6,286047002.8,N
1541834355.4,286047002.6,N
1541834375.3,286047002.7,N
1541834395.1,286047000.2,N
1541834415.8,286046999.8,N
1541834435.7,286047002.1,N
1541834455.5,286047002.0,N
1541834475.4,286047002.4,N
1541834495.2,286047001.0,N
1541834515.0,286047000.2,N
1541834515.9,286047000.2,N
1541834535.8,286047000.5,N
1541834555.6,286047002.0,N
1541834575.5,286047001.4,N
1541834595.3,286047003.7,N
1541834615.1,286047003.5,N
1541834635.9,286047002.0,N
1541834655.7,286047002.5,N
1541834675.5,286047001.9,N
1541834695.4,286047002.3,N
1541834715.2,286046999.7,N
1541834735.1,286047002.0,N
1541834736.0,286047002.0,N
1541834755.8,286047002.1,N
1541834775.6,286047003.6,N
1541834795.5,286047004.2,N
1541834815.3,286047005.2,Y
1541834835.2,286047002.7,P
1541834855.9,286047001.6,N
1541834875.7,286047004.1,P
1541834895.6,286047003.1,N
1541834915.4,286047005.3,Y
1541834935.3,286047003.7,P
1541834955.1,286047001.3,N
1541834956.0,286047001.3,N
1541834975.8,286047002.5,N
1541834995.7,286047002.1,N
1541835015.5,286047002.4,N
1541835035.3,286047002.4,Y
1541835055.2,286046996.7,P
1541835075.0,286046999.6,N
1541835075.9,286046999.6,N
1541835095.8,286046997.7,N
1541835115.6,286046997.6,N
1541835135.4,286046998.3,N
1541835155.3,286046999.5,N
1541835175.1,286046999.1,N
1541835195.9,286046998.2,N
1541835215.7,286046998.6,N
1541835235.5,286047002.8,N
1541835255.4,286047000.1,N
1541835275.2,286047002.0,N
1541835295.0,286047002.0,N
1541835295.9,286047002.0,N
1541835315.8,286047001.6,N
1541835335.6,286047001.7,N
1541835355.5,286047001.7,N
1541835375.3,286047004.3,N
1541835395.1,286047002.0,N
1541835415.9,286047001.9,N
1541835435.7,286047004.3,N
1541835455.5,286047004.3,N
1541835475.4,286047005.5,N
1541835495.2,286047006.0,N
1541835515.0,286047005.9,N
1541835516.0,286047005.9,N
1541835535.8,286047004.8,N
1541835555.6,286047005.3,N
1541835575.5,286047005.6,N
1541835595.3,286047005.8,N
1541835615.1,286047005.1,N
1541835635.9,286047005.6,N
1541835655.7,286047003.3,N
1541835675.5,286047003.6,N
1541835695.4,286047005.6,N
1541835715.2,286047007.4,Y
1541835735.1,286047005.8,P
1541835736.0,286047005.8,P
1541835755.8,286047003.2,N
1541835775.6,286047003.6,N
1541835795.5,286047005.7,Y
1541835815.3,286047000.4,P
1541835835.2,286047000.9,N
1541835855.9,286047000.4,N
1541835875.7,286046999.7,N
1541835895.6,286047000.0,N
1541835915.4,286047002.2,N
1541835935.2,286047002.8,N
1541835955.1,286047003.9,N
1541835956.0,286047003.9,N
1541835975.8,286047002.5,N
1541835995.7,286047002.6,N
1541836015.5,286047004.1,N
1541836035.3,286047003.7,N
1541836055.2,286047001.7,N
1541836075.9,286047004.2,N
1541836095.7,286047003.3,N
1541836115.6,286047003.9,N
1541836135.4,286047004.5,N
1541836155.3,286047005.7,Y
1541836175.1,286047001.7,P
1541836176.0,286047001.7,P
1541836195.8,286047000.3,N
1541836215.7,286047000.2,N
1541836235.5,286047000.2,N
1541836255.3,286047000.3,N
1541836275.2,286047000.9,N
1541836295.0,286047002.0,N
1541836295.9,286047002.0,N
1541836315.8,286047003.8,Y
1541836335.6,286047001.6,P
1541836355.4,286047003.7,P
1541836375.3,286047005.4,P
1541836395.1,286047006.0,Y
1541836415.8,286047000.2,P
1541836435.7,286047000.5,N
1541836455.5,286046998.2,N
1541836475.4,286047001.0,N
1541836495.2,286046999.8,N
1541836515.0,286047001.5,N
1541836515.9,286047001.5,N
1541836535.8,286047002.6,N
1541836555.6,286047003.5,N
1541836575.4,286047001.7,N
1541836595.3,286047004.4,Y
1541836615.1,286047000.1,P
1541836635.9,286047001.5,N
1541836655.7,286047003.8,P
1541836675.5,286047003.7,N
1541836695.4,286047004.2,N
1541836715.2,286047004.4,N
1541836735.0,286047001.3,N
1541836735.9,286047001.3,N
1541836755.8,286047003.9,N
1541836775.6,286047001.8,N
1541836795.5,286047005.9,Y
